Weather in Itaguaí

Brazil     22°52′09″S   43°47′17″W
temp.,
°C
wind,
m/s
gust,
m/s
humid.,
%
clouds,
%
prec.,
mm/h
press.,
hPa
HPBL,
m
4 december, sat
sat400:00+19nnw019347 0.1 101613
03:00+18wnw119640 0.1 101511
06:00+18nnw119067 0.0 101766
09:00+25e116227 0.0 1017938
12:00+25s3364100 0.1 1016967
15:00+25sse456772 0.1 1016988
18:00+22s357880 0.0 1017466
21:00+20sw118750 0.0 101923
5 december, sun
sun500:00+19nw118793 0.0 101832
03:00+20nnw228698 0.0 101667
06:00+20nnw128538 0.0 1017100
09:00+27n355644 0.0 10171242
12:00+32ne234254 0.1 10142269
15:00+24s368039 1.5 1014443
18:00+21sw249312 1.8 1014147
21:00+19wsw129628 3.6 101539
6 december, mon
mon600:00+19nw119668 2.0 101432
03:00+19nw129798 3.5 101237
06:00+19wnw1197100 5.3 101452
09:00+20nw1197100 8.7 101590
12:00+28nne126494 0.9 1012958
15:00+25s457886 3.7 1011759
18:00+22sse368673 0.3 1012518
21:00+20ssw2498100 0.6 1013123
7 december, tue
tue700:00+19wsw229772 0.5 101363
03:00+19wsw1197100 0.5 101119
06:00+19ssw2396100 0.4 1012126
09:00+20ssw2394100 2.3 1014222
12:00+21sse138959 1.5 1013304
15:00+22sse458165 2.9 1012860
18:00+20s249351 1.2 1013210
21:00+18wsw2296100 1.2 101430
8 december, wed
wed800:00+18wnw1196100 0.0 101314
03:00+17nw119668 0.0 101213
06:00+18wnw119383 0.0 101355
09:00+24e116830 0.0 1013914
12:00+25sse326875 0.6 10121067
15:00+24sse447978 2.4 1011950
18:00+20s2591100 0.9 1012190
21:00+19sw1294100 1.1 101445